Wind_Speed
18 21 18 22 26 26 18 13 9 12 2 8 13 8 8 7 6 4 4 2 3 5 6 6 8 11 12 13 15 19 19 25 25 27 31 36 37 40 42 43 43 42 39 35
17 20 18 18 23 28 22 16 15 19 12 16 13 7 13 11 10 9 5 5 7 7 8 5 7 9 10 13 16 19 22 22 19 22 28 34 33 32 35 37 42 45 42 41
18 18 15 12 13 15 18 21 19 14 8 16 18 18 16 11 9 8 8 8 6 6 6 6 7 8 12 14 16 18 19 22 24 26 30 29 27 35 36 38 39 38 37 38
14 17 20 17 7 9 14 17 10 11 10 16 16 16 11 6 10 10 8 7 4 3 0 2 4 4 7 10 15 19 21 22 21 25 28 32 35 36 35 36 37 39 37 31
12 16 21 17 13 11 12 13 8 12 8 9 9 12 9 9 9 9 6 5 3 1 1 4 2 3 5 8 12 16 19 22 23 24 27 31 33 33 34 33 33 35 36 33
14 18 21 3 5 7 6 9 7 9 16 14 12 11 7 11 10 8 6 3 3 2 3 4 1 2 6 7 10 11 14 17 19 21 24 27 28 31 32 31 30 31 31 32
18 14 5 12 17 8 9 4 7 7 14 13 11 5 13 11 10 9 3 2 4 4 5 4 4 3 2 2 5 7 11 13 19 23 24 28 28 29 31 31 31 32 32 31
8 5 3 19 10 5 6 6 5 6 8 10 12 13 12 10 10 7 4 5 5 5 6 7 7 4 1 2 3 3 5 9 14 20 22 26 28 27 30 32 32 31 32 30
2 4 4 4 7 9 11 5 7 5 5 10 11 11 10 9 8 4 2 6 7 5 7 8 10 8 5 4 3 2 7 12 16 20 23 28 29 28 29 32 32 31 32 30
7 2 7 2 6 8 11 13 6 5 5 9 11 9 9 7 7 8 7 9 7 8 7 12 12 7 5 1 5 3 5 9 15 19 20 23 24 27 27 29 28 30 29 28
7 5 8 4 4 8 9 9 7 3 4 8 10 9 9 7 8 8 9 11 9 7 5 6 7 6 3 0 6 10 9 10 11 11 16 18 20 23 25 28 30 28 28 30
5 8 6 11 9 9 8 6 8 6 6 5 2 8 9 8 7 7 7 8 7 7 6 5 5 3 3 4 7 10 10 10 10 10 12 15 14 11 13 18 24 26 29 32
11 10 8 12 12 10 8 7 3 4 3 2 2 5 10 8 8 8 6 6 6 7 6 6 5 5 6 7 7 7 8 9 10 13 14 14 13 15 15 17 21 26 31 31
15 12 13 12 10 8 10 10 9 7 5 4 5 6 9 8 8 7 5 4 4 5 5 5 5 4 5 7 7 8 7 10 9 10 14 14 15 14 16 21 20 21 28 34
14 13 12 13 13 12 12 10 10 8 3 3 3 8 9 10 8 6 3 3 6 6 6 2 3 3 5 7 8 9 10 11 11 11 11 13 15 15 17 18 18 20 21 22
14 13 12 11 11 9 10 8 9 7 6 4 6 7 9 10 10 7 5 4 2 2 2 4 2 2 5 10 10 9 10 12 14 13 14 14 15 16 16 19 20 21 23 24
13 16 13 9 8 8 8 5 7 6 6 7 7 9 11 11 9 7 5 4 4 1 1 2 3 4 3 12 13 10 10 11 16 15 15 16 17 16 17 19 20 21 22 26
11 13 7 5 5 4 4 4 5 7 8 9 10 10 7 5 7 6 5 3 2 1 2 1 4 5 6 5 16 13 11 12 15 14 15 16 17 18 19 19 19 20 22 25
3 4 3 2 3 3 2 1 8 12 15 11 10 7 8 9 8 7 3 0 1 3 2 3 5 6 7 6 7 15 13 13 14 15 15 16 18 18 20 21 22 23 24 26
6 5 6 7 8 7 6 8 13 14 15 13 10 7 7 9 6 4 1 1 2 2 3 5 8 8 8 7 9 8 15 16 16 16 16 17 18 19 20 22 23 24 25 27
8 7 7 8 9 10 9 9 12 10 12 10 9 6 7 7 4 2 1 1 0 4 7 9 9 9 8 7 6 9 13 16 17 16 16 18 18 19 21 22 24 25 27 27
7 5 6 6 7 7 8 9 11 10 9 9 10 7 5 4 2 1 1 2 4 8 9 9 8 8 9 10 8 10 12 16 17 17 17 18 19 19 20 22 23 25 26 27
7 4 3 2 4 6 7 7 8 6 6 6 8 7 5 3 1 2 2 2 5 6 8 9 10 11 10 9 10 10 11 13 15 17 19 19 19 19 19 22 23 24 25 27
8 5 4 2 3 5 5 4 5 5 5 5 6 7 4 2 2 1 3 5 5 6 7 8 9 9 8 7 6 6 6 8 10 15 17 19 18 18 18 19 20 22 23 25
8 5 1 1 2 2 2 5 6 6 5 3 4 5 4 3 1 0 2 3 4 5 6 7 8 6 5 5 5 5 5 4 5 8 11 12 13 15 15 15 16 18 19 21
7 4 6 6 6 4 4 5 3 4 3 3 4 5 5 4 2 1 1 2 3 4 5 5 6 6 7 7 7 7 7 6 5 3 4 5 7 7 10 10 11 13 14 15
9 9 7 6 9 8 8 7 5 5 6 6 3 5 5 4 2 1 0 0 1 2 3 4 6 8 8 8 9 10 10 10 9 7 7 6 6 6 6 7 9 10 11 12
Wind_Direction
253 269 279 280 299 292 248 233 244 282 287 265 172 190 217 216 215 234 253 177 161 195 187 203 194 185 194 200 199 195 190 196 188 188 190 190 191 193 190 186 187 192 190 186
277 276 257 275 295 289 266 249 244 252 231 182 193 231 259 244 234 229 200 148 117 115 130 177 194 204 194 199 203 197 194 199 199 186 189 193 185 177 176 177 180 185 184 184
276 278 287 266 273 292 276 246 241 229 210 179 210 222 218 205 223 213 163 138 130 122 130 143 173 183 194 205 194 205 207 204 190 181 184 186 180 181 177 178 179 179 183 185
271 282 261 269 219 235 264 274 250 232 243 190 216 216 198 167 175 164 148 124 120 91 308 201 161 188 206 205 201 200 205 203 193 189 184 182 191 192 184 180 180 180 180 185
254 262 281 263 236 247 237 279 227 234 220 187 181 124 109 136 147 134 127 99 77 88 240 248 198 184 227 221 216 212 211 209 204 194 187 181 181 185 185 181 179 179 179 178
239 254 267 323 11 345 272 254 348 263 196 213 160 191 152 157 139 104 66 45 28 327 238 232 154 182 227 229 227 227 222 217 208 205 191 185 185 182 184 183 177 170 169 171
237 246 239 1 325 310 211 57 349 243 175 177 198 73 125 139 111 94 96 63 83 89 91 71 64 92 147 171 197 218 223 211 193 194 191 188 184 179 176 172 165 161 160 163
333 263 219 355 334 285 356 7 17 93 147 154 127 124 127 124 109 113 131 123 118 88 70 50 44 37 358 320 313 259 224 203 192 186 183 178 172 171 169 166 160 159 157 158
272 330 262 328 342 321 334 336 23 61 108 131 136 136 133 119 105 103 135 116 95 87 85 68 49 31 24 6 18 228 184 176 176 177 174 172 168 167 167 167 166 166 166 167
322 237 261 190 270 321 342 344 7 357 136 147 132 128 115 107 110 119 123 118 119 100 80 65 47 43 61 177 115 109 141 154 166 163 165 168 169 169 169 174 176 176 173 168
285 311 326 202 267 338 343 2 339 195 138 124 135 136 132 115 119 115 103 102 95 79 72 87 77 65 68 68 110 125 133 152 156 167 170 171 178 179 183 189 189 176 170 163
294 314 299 305 322 319 316 342 9 31 97 67 150 144 141 118 115 100 101 127 130 128 111 93 85 94 141 163 143 128 136 153 160 165 176 181 169 147 183 187 183 173 168 167
277 294 279 291 294 304 307 337 322 337 332 277 344 189 156 138 125 106 111 112 110 124 140 150 148 183 177 168 141 139 139 156 163 165 173 173 165 157 146 155 174 173 170 168
277 276 267 261 267 269 298 301 311 299 280 303 283 191 156 141 136 104 93 86 65 98 140 175 184 197 195 172 158 154 153 165 172 182 177 181 176 171 167 160 162 165 178 174
268 266 268 274 278 276 279 278 280 275 206 288 235 164 157 148 134 120 102 83 95 94 67 53 171 209 222 205 182 175 172 174 178 181 191 185 177 173 170 166 165 161 161 172
282 275 263 260 269 274 261 242 248 254 159 202 141 129 119 118 123 129 102 68 139 96 38 320 48 30 249 221 205 201 201 187 178 182 178 186 186 177 176 177 171 168 171 172
256 252 241 244 240 252 254 239 241 216 170 151 136 134 127 125 129 126 109 100 90 80 337 294 17 359 329 227 217 212 214 199 190 180 187 192 191 190 185 179 178 179 179 179
237 243 245 236 254 249 301 254 224 176 147 130 122 106 98 115 119 107 91 71 72 152 165 7 347 330 301 258 222 222 211 208 206 202 192 194 198 195 186 187 188 185 183 182
125 183 194 278 336 359 14 265 154 123 108 123 117 113 107 97 97 98 92 257 202 251 160 320 306 285 267 254 251 227 221 214 216 217 202 202 196 199 197 190 188 186 182 178
64 71 89 81 69 75 91 111 122 110 108 112 118 118 106 87 75 74 65 58 33 39 323 313 312 276 263 250 234 233 229 223 217 217 205 200 199 201 201 198 191 187 184 184
39 49 64 85 85 72 72 87 101 105 118 124 115 119 113 103 89 30 145 297 319 328 315 303 284 273 265 271 262 242 235 228 221 216 204 204 205 205 202 201 196 194 192 191
15 46 70 83 92 93 87 85 94 97 100 106 113 120 122 111 108 5 150 339 321 310 307 292 283 275 277 279 272 256 251 240 230 220 212 207 208 208 208 204 201 200 199 196
17 29 50 66 105 109 106 104 108 126 139 145 153 154 151 137 128 356 329 328 315 308 307 291 289 290 291 283 268 268 271 257 237 223 215 213 212 209 205 204 206 204 199 196
352 4 1 29 125 140 132 137 137 140 150 169 174 177 171 190 183 180 320 311 316 314 305 304 311 315 307 296 304 304 296 280 259 237 222 217 211 211 209 210 208 204 201 198
328 311 246 289 230 186 157 163 168 175 181 169 172 180 183 179 219 310 321 296 298 319 318 333 338 349 356 357 9 6 3 344 277 237 225 215 213 209 209 207 203 198 196 196
324 320 293 244 252 218 218 202 209 175 197 196 174 167 166 165 179 175 284 318 324 343 346 347 5 15 23 27 33 42 47 52 65 108 172 190 195 190 195 191 189 190 189 189
341 327 321 269 230 226 214 210 215 231 227 228 174 164 173 168 167 152 112 287 12 11 13 18 28 32 33 39 47 51 57 62 72 82 94 108 120 131 140 148 155 161 167 172
Height
670 660 665 658 645 639 645 641 640 627 636 636 614 616 612 615 620 624 632 637 637 639 641 647 651 652 657 662 668 674 680 684 687 692 696 698 701 704 709 720 728 738 749 755
661 652 647 645 646 630 621 630 632 626 625 632 638 634 629 625 626 629 636 639 637 638 639 648 652 653 656 662 670 674 674 679 686 688 693 699 700 706 709 716 724 728 740 748
654 638 632 643 627 623 610 612 618 621 621 614 631 621 623 615 627 630 634 633 640 642 643 644 647 650 654 659 660 669 671 677 676 681 686 694 699 704 707 712 721 729 737 743
653 641 641 609 609 610 615 610 614 616 603 624 621 617 617 605 630 636 634 633 640 642 647 648 642 648 652 655 656 662 665 669 675 674 678 686 694 701 703 709 715 723 729 744
657 624 599 594 594 601 604 594 591 591 614 615 613 612 619 622 630 633 637 633 639 643 646 651 644 642 649 651 654 658 659 664 667 671 675 678 683 695 702 706 712 717 727 739
644 630 614 598 605 613 601 591 592 585 601 609 605 614 618 632 632 629 632 641 638 644 646 650 645 640 646 648 655 653 656 659 664 671 672 675 682 686 697 705 709 716 725 734
620 622 602 635 634 613 610 606 603 597 598 606 607 598 622 633 626 626 645 645 639 644 646 646 645 643 645 646 646 651 656 657 660 664 667 674 681 684 693 700 706 712 721 732
639 616 617 643 632 620 626 617 610 605 603 603 610 617 626 628 623 632 642 642 643 643 646 645 642 642 646 647 652 653 655 657 659 662 666 670 678 687 691 697 704 712 719 727
662 657 659 658 653 649 640 627 618 615 611 610 616 621 626 625 624 635 640 640 640 643 645 643 642 647 651 654 654 658 656 657 659 662 665 671 678 685 691 695 699 706 714 722
654 642 643 651 651 646 640 631 627 621 617 616 618 622 622 625 633 637 639 642 640 641 644 642 649 653 654 663 658 659 659 660 662 665 668 672 677 682 686 692 699 703 707 713
643 633 634 642 642 641 637 633 627 625 621 618 621 624 626 630 633 635 633 637 639 644 647 651 655 656 659 661 656 656 660 664 666 669 672 675 679 682 686 691 694 697 703 709
640 639 642 639 638 639 637 633 633 626 623 626 626 627 628 630 633 633 636 643 647 648 649 651 654 658 660 663 661 658 661 664 666 670 675 678 680 683 686 689 693 698 702 707
636 635 636 638 637 635 633 632 630 636 628 628 630 630 627 631 635 641 644 645 646 646 652 654 655 659 661 662 660 660 661 665 668 670 674 678 681 682 686 691 697 700 703 710
633 634 634 633 631 631 632 632 633 631 629 631 631 630 629 632 640 643 650 652 651 648 652 654 656 657 658 657 658 660 662 666 669 671 672 676 679 682 684 689 695 701 706 709
628 626 627 628 628 630 629 629 629 628 629 632 630 628 632 636 641 650 653 653 652 654 654 656 655 654 655 656 658 659 661 663 666 670 673 675 677 681 685 689 693 698 705 712
625 623 622 624 623 625 624 625 627 625 626 634 634 635 637 641 647 652 653 653 652 654 655 657 653 653 655 656 657 659 661 661 664 668 670 675 677 679 683 687 691 696 701 707
628 625 620 620 619 619 618 618 621 622 626 633 638 641 643 647 652 653 654 655 655 657 657 658 654 653 654 656 657 658 659 661 662 663 667 670 674 677 680 683 687 692 697 703
621 618 616 616 617 616 616 618 619 623 628 636 642 645 648 651 651 653 655 655 656 657 657 656 655 654 654 654 656 656 658 659 662 661 663 666 669 673 675 680 684 688 693 699
615 616 618 619 620 620 621 621 620 629 633 642 644 647 649 650 652 652 656 658 657 657 656 655 654 654 655 653 652 653 654 656 658 659 660 663 666 669 672 674 677 682 687 693
621 621 622 624 625 625 626 628 631 634 637 642 646 648 648 650 652 654 655 655 656 656 657 655 654 654 653 652 651 651 651 652 654 655 656 658 661 663 666 669 673 676 681 685
631 631 632 631 631 632 633 635 635 638 643 646 647 650 651 652 655 655 655 654 655 655 655 654 654 653 651 650 648 647 647 648 649 650 651 653 656 658 660 663 667 670 673 678
637 636 636 636 636 637 639 640 640 643 644 646 647 651 652 653 654 654 655 655 654 654 654 653 651 650 648 646 644 643 643 643 643 644 646 648 650 652 654 657 660 664 667 671
642 641 641 640 639 641 642 643 643 646 647 649 650 651 651 652 653 652 653 654 654 653 652 651 649 646 643 642 641 639 639 638 638 638 640 641 644 646 649 651 654 657 661 665
643 644 643 642 642 642 643 645 646 648 649 650 650 651 651 651 652 653 654 653 652 651 650 649 645 641 640 638 637 636 635 634 633 634 635 637 640 642 645 647 650 653 656 660
645 643 643 644 642 641 643 644 645 647 648 648 649 650 650 651 652 652 652 652 651 650 647 644 643 640 638 636 635 634 633 632 632 632 634 636 638 640 642 644 647 649 653 656
644 643 641 641 640 640 641 641 641 643 644 644 646 647 649 649 650 650 650 650 649 647 645 645 642 640 638 637 636 635 634 633 633 634 635 636 638 639 641 643 645 648 651 654
644 641 639 638 639 639 639 639 640 640 641 642 642 645 646 647 648 648 648 648 648 647 646 645 643 641 640 639 638 637 637 637 637 637 637 638 639 640 642 644 646 648 651 654